Weather History for Anderson, SC

Change the Weather History Date:

Monday, February 25, 2013

  Actual Average Record
Temperature  
Mean Temperature 42 °F -  
Max Temperature 48 °F 59 °F 76 °F (1981)
Min Temperature 37 °F 36 °F 11 °F (1967)
Degree Days  
Heating Degree Days 22    
Moisture  
Dew Point 29 °F    
Average Humidity 59    
Maximum Humidity 100    
Minimum Humidity 44    
Precipitation  
Precipitation 0.08 in - - ()
Sea Level Pressure  
Sea Level Pressure 30.03 in    
Wind  
Wind Speed 12 mph (ENE)    
Max Wind Speed 18 mph    
Max Gust Speed 30 mph    
Visibility 9 miles    
Events Rain    
Averages and records for this station are not official NWS values.
T = Trace of Precipitation, MM = Missing Value Source: NWS Daily Summary

Daily Weather History Graph

Daily Weather History Graph

Search for Another Location

Airport:

Trip Planner

Search our weather history database for the weather conditions in past years. The results will help you decide how hot, cold, wet, or windy it might be!

Date:

Astronomy

Feb. 25, 2013 Rise Set
Actual Time 7:04 AM EST 6:23 PM EST
Civil Twilight 6:39 AM EST 6:48 PM EST
Nautical Twilight 6:09 AM EST 7:18 PM EST
Astronomical Twilight 5:40 AM EST 7:47 PM EST
Moon 6:32 PM EST (2/25) 6:35 AM EST (2/25)
Length of Visible Light 12h 09m
Length of Day
11h 19m
Full, 100% of the Moon is Illuminated
Feb 25
Full
Feb 25
Full
Mar 4
Last Quarter
Mar 11
New
Mar 19
First Quarter

Hourly Weather History & Observations

Time (EST) Temp. Windchill Dew Point Humidity Pressure Visibility Wind Dir Wind Speed Gust Speed Precip Events Conditions
12:56 AM 46.0 °F 41.9 °F 30.9 °F 56% 29.97 in 10.0 mi NE 8.1 mph - N/A   Clear
1:56 AM 45.0 °F 40.1 °F 28.0 °F 52% 29.97 in 10.0 mi ENE 9.2 mph - N/A   Clear
2:56 AM 45.0 °F 40.1 °F 28.0 °F 52% 29.98 in 10.0 mi ENE 9.2 mph - N/A   Clear
3:56 AM 46.0 °F 40.2 °F 27.0 °F 47% 29.99 in 10.0 mi ENE 12.7 mph - N/A   Clear
4:56 AM 46.0 °F 39.6 °F 26.1 °F 46% 29.99 in 10.0 mi East 15.0 mph 23.0 mph N/A   Clear
5:56 AM 46.0 °F 39.9 °F 25.0 °F 44% 30.02 in 10.0 mi ENE 13.8 mph - N/A   Clear
6:56 AM 45.0 °F 37.9 °F 25.0 °F 46% 30.03 in 10.0 mi ENE 16.1 mph 20.7 mph N/A   Clear
7:56 AM 44.1 °F 37.1 °F 25.0 °F 47% 30.08 in 10.0 mi ENE 15.0 mph - N/A   Clear
8:56 AM 45.0 °F 38.2 °F 25.0 °F 46% 30.12 in 10.0 mi ENE 15.0 mph - N/A   Clear
9:56 AM 45.0 °F 38.2 °F 26.1 °F 48% 30.11 in 10.0 mi NE 15.0 mph 19.6 mph N/A   Clear
10:56 AM 45.0 °F 38.5 °F 25.0 °F 46% 30.10 in 10.0 mi ENE 13.8 mph 20.7 mph N/A   Partly Cloudy
11:56 AM 46.0 °F 39.0 °F 26.1 °F 46% 30.09 in 10.0 mi ENE 17.3 mph 20.7 mph N/A   Clear
12:56 PM 46.9 °F - 27.0 °F 46% 30.05 in 10.0 mi ENE 13.8 mph - N/A   Scattered Clouds
1:56 PM 46.9 °F - 27.0 °F 46% 30.04 in 10.0 mi NE 9.2 mph - 0.04 in   Overcast
2:56 PM 48.0 °F - 28.0 °F 46% 30.04 in 10.0 mi NE 11.5 mph - N/A   Overcast
3:56 PM 48.0 °F - 28.0 °F 46% 30.02 in 10.0 mi ENE 13.8 mph - N/A   Overcast
4:16 PM 48.2 °F - 28.4 °F 46% 30.02 in 10.0 mi East 17.3 mph 20.7 mph N/A   Overcast
4:56 PM 48.0 °F - 28.9 °F 48% 30.02 in 10.0 mi ENE 10.4 mph - N/A   Overcast
5:56 PM 46.0 °F 39.6 °F 28.9 °F 51% 30.01 in 10.0 mi East 15.0 mph - N/A   Overcast
6:46 PM 44.6 °F 36.9 °F 28.4 °F 53% 30.01 in 10.0 mi East 18.4 mph 24.2 mph N/A   Overcast
6:56 PM 45.0 °F 38.2 °F 28.9 °F 53% 30.01 in 10.0 mi East 15.0 mph 21.9 mph N/A   Overcast
7:56 PM 43.0 °F 35.1 °F 28.9 °F 58% 30.01 in 10.0 mi East 17.3 mph 29.9 mph N/A   Overcast
8:56 PM 41.0 °F 32.5 °F 32.0 °F 70% 30.03 in 10.0 mi ENE 17.3 mph 23.0 mph N/A   Overcast
9:56 PM 37.9 °F 30.0 °F 36.0 °F 93% 30.03 in 5.0 mi ENE 12.7 mph - 0.01 in Rain Light Rain
10:18 PM 37.4 °F 30.3 °F 35.6 °F 93% 30.03 in 2.0 mi ENE 10.4 mph - 0.01 in Rain Light Rain
10:21 PM 37.4 °F 30.3 °F 37.4 °F 100% 30.02 in 2.0 mi ENE 10.4 mph - 0.01 in Rain Light Rain
10:38 PM 37.4 °F 28.9 °F 35.6 °F 93% 30.01 in 3.0 mi ENE 13.8 mph - 0.01 in   Overcast
10:56 PM 37.0 °F 28.5 °F 36.0 °F 96% 30.02 in 4.0 mi ENE 13.8 mph 21.9 mph 0.02 in   Overcast
11:56 PM 37.0 °F 28.1 °F 35.1 °F 93% 29.99 in 4.0 mi NE 15.0 mph 24.2 mph 0.01 in Rain Light Rain